AFR7592 LFPO-LFKB

Flight info

Callsign AFR7592
Flight time 1h 26m
Altitude 37000
Route LATRA DCT LAMUT DCT UTUVA DCT TITVA DCT NOQAS DCT OTROT DCT RETNO DCT KOLON DCT NARTI UP991 NIRDO
Aircraft A320/M-SDE2E3FGIJ1RWY/HB1

Departure

Time 2026-04-25 02:58
Airport Paris-Orly Airport (LFPO)

Arrival

Time 2026-04-25 04:24
Airport Bastia-Poretta International airport (LFKB)
Time Latitude Longitude Altitude Speed Heading
2026-04-25 02:33 48.72582 2.35879 294 ft 0 kts 26°
2026-04-25 02:50 48.72580 2.35877 294 ft 2 kts 27°
2026-04-25 02:50 48.72556 2.35860 299 ft 4 kts 27°
2026-04-25 02:50 48.72532 2.35841 299 ft 4 kts 27°
2026-04-25 02:50 48.72512 2.35826 298 ft 2 kts 27°
2026-04-25 02:51 48.72490 2.35814 297 ft 4 kts 348°
2026-04-25 02:51 48.72477 2.35830 298 ft 3 kts 276°
2026-04-25 02:51 48.72476 2.35853 298 ft 0 kts 276°
2026-04-25 02:53 48.72477 2.35835 298 ft 5 kts 276°
2026-04-25 02:53 48.72478 2.35766 294 ft 6 kts 265°
2026-04-25 02:54 48.72467 2.35697 295 ft 6 kts 253°
2026-04-25 02:54 48.72452 2.35640 297 ft 5 kts 238°
2026-04-25 02:54 48.72408 2.35621 294 ft 8 kts 170°
2026-04-25 02:54 48.72358 2.35639 294 ft 7 kts 167°
2026-04-25 02:55 48.72315 2.35628 294 ft 6 kts 200°
2026-04-25 02:55 48.72264 2.35602 295 ft 8 kts 196°
2026-04-25 02:55 48.72208 2.35609 295 ft 9 kts 167°
2026-04-25 02:55 48.72150 2.35632 294 ft 8 kts 165°
2026-04-25 02:56 48.72100 2.35656 297 ft 7 kts 158°
2026-04-25 02:56 48.72059 2.35693 296 ft 9 kts 140°
2026-04-25 02:56 48.72018 2.35780 296 ft 10 kts 120°
2026-04-25 02:56 48.71987 2.35865 294 ft 8 kts 118°
2026-04-25 02:57 48.71965 2.35933 296 ft 6 kts 111°
2026-04-25 02:57 48.71970 2.36015 294 ft 11 kts 75°
2026-04-25 02:57 48.72036 2.36378 296 ft 72 kts 74°
2026-04-25 02:57 48.72233 2.37441 295 ft 135 kts 74°
2026-04-25 02:58 48.72525 2.39005 558 ft 159 kts 73°
2026-04-25 02:58 48.72815 2.40606 1297 ft 157 kts 73°
2026-04-25 02:58 48.73108 2.42199 2024 ft 157 kts 73°
2026-04-25 02:58 48.73402 2.43792 2670 ft 157 kts 73°
2026-04-25 02:59 48.73700 2.45394 3257 ft 158 kts 73°
2026-04-25 02:59 48.73995 2.47045 3701 ft 171 kts 78°
2026-04-25 02:59 48.74076 2.48938 3979 ft 194 kts 86°
2026-04-25 02:59 48.74146 2.51098 4253 ft 218 kts 86°
2026-04-25 03:00 48.74235 2.53517 4627 ft 242 kts 86°
2026-04-25 03:00 48.74256 2.56181 5132 ft 262 kts 98°
2026-04-25 03:00 48.73448 2.58671 5905 ft 272 kts 134°
2026-04-25 03:00 48.71838 2.60198 6779 ft 278 kts 158°
2026-04-25 03:01 48.69972 2.61030 7660 ft 282 kts 166°
2026-04-25 03:01 48.68038 2.61640 8506 ft 286 kts 168°
2026-04-25 03:01 48.66088 2.62137 9328 ft 291 kts 176°
2026-04-25 03:01 48.64051 2.61934 10147 ft 296 kts 191°
2026-04-25 03:02 48.62039 2.61060 10692 ft 311 kts 203°
2026-04-25 03:02 48.60029 2.59567 10975 ft 332 kts 207°
2026-04-25 03:02 48.57940 2.57960 11588 ft 341 kts 207°
2026-04-25 03:02 48.55812 2.56322 12331 ft 345 kts 207°
2026-04-25 03:03 48.53664 2.54668 13096 ft 349 kts 208°
2026-04-25 03:03 48.51492 2.52996 13838 ft 352 kts 208°
2026-04-25 03:03 48.49325 2.51328 14506 ft 356 kts 208°
2026-04-25 03:03 48.47109 2.49623 15166 ft 360 kts 207°
2026-04-25 03:04 48.44778 2.48211 15803 ft 364 kts 198°
2026-04-25 03:04 48.42338 2.47105 16457 ft 368 kts 197°
2026-04-25 03:04 48.39876 2.45995 17089 ft 372 kts 197°
2026-04-25 03:05 48.34863 2.43732 18312 ft 380 kts 197°
2026-04-25 03:05 48.32316 2.42602 18869 ft 384 kts 194°
2026-04-25 03:05 48.29659 2.41998 19388 ft 388 kts 183°
2026-04-25 03:05 48.26951 2.42178 19925 ft 392 kts 171°
2026-04-25 03:06 48.24326 2.43152 20452 ft 396 kts 160°
2026-04-25 03:06 48.21723 2.44559 20987 ft 400 kts 160°
2026-04-25 03:06 48.19093 2.45970 21516 ft 404 kts 160°
2026-04-25 03:06 48.16431 2.47387 22001 ft 409 kts 160°
2026-04-25 03:07 48.13736 2.48814 22510 ft 413 kts 160°
2026-04-25 03:07 48.11015 2.50254 23022 ft 417 kts 160°
2026-04-25 03:07 48.08268 2.51708 23533 ft 421 kts 161°
2026-04-25 03:07 48.05488 2.53144 23971 ft 425 kts 161°
2026-04-25 03:08 48.02710 2.54526 24391 ft 428 kts 162°
2026-04-25 03:08 47.99873 2.55905 24813 ft 431 kts 162°
2026-04-25 03:08 47.97009 2.57285 25200 ft 434 kts 162°
2026-04-25 03:08 47.94121 2.58679 25580 ft 438 kts 162°
2026-04-25 03:09 47.91220 2.60087 25976 ft 440 kts 162°
2026-04-25 03:09 47.88300 2.61511 26365 ft 443 kts 162°
2026-04-25 03:09 47.85365 2.62952 26757 ft 445 kts 162°
2026-04-25 03:09 47.82419 2.64403 27141 ft 447 kts 162°
2026-04-25 03:10 47.79454 2.65863 27520 ft 450 kts 162°
2026-04-25 03:10 47.76516 2.67306 27886 ft 452 kts 162°
2026-04-25 03:10 47.73519 2.68771 28221 ft 455 kts 163°
2026-04-25 03:10 47.70500 2.70242 28571 ft 458 kts 163°
2026-04-25 03:11 47.67463 2.71717 28922 ft 460 kts 163°
2026-04-25 03:11 47.64412 2.73192 29266 ft 462 kts 163°
2026-04-25 03:11 47.61349 2.74673 29618 ft 464 kts 163°
2026-04-25 03:11 47.58271 2.76166 29950 ft 466 kts 163°
2026-04-25 03:12 47.55180 2.77666 30250 ft 468 kts 163°
2026-04-25 03:12 47.52122 2.79147 30544 ft 470 kts 163°
2026-04-25 03:12 47.49013 2.80649 30818 ft 471 kts 163°
2026-04-25 03:12 47.45894 2.82156 31084 ft 472 kts 163°
2026-04-25 03:13 47.42769 2.83663 31341 ft 473 kts 163°
2026-04-25 03:13 47.39632 2.85173 31595 ft 475 kts 163°
2026-04-25 03:13 47.36495 2.86679 31932 ft 473 kts 163°
2026-04-25 03:13 47.33368 2.88176 32292 ft 472 kts 163°
2026-04-25 03:14 47.30253 2.89664 32703 ft 469 kts 163°
2026-04-25 03:14 47.27193 2.91126 33026 ft 469 kts 163°
2026-04-25 03:14 47.24083 2.92613 33281 ft 470 kts 163°
2026-04-25 03:14 47.20971 2.94104 33589 ft 470 kts 163°
2026-04-25 03:15 47.17862 2.95595 33922 ft 469 kts 163°
2026-04-25 03:15 47.14759 2.97079 34255 ft 468 kts 163°
2026-04-25 03:15 47.11664 2.98553 34579 ft 466 kts 163°
2026-04-25 03:15 47.08576 2.99952 34925 ft 463 kts 165°
2026-04-25 03:16 47.05485 3.01255 35248 ft 461 kts 166°
2026-04-25 03:16 47.02439 3.02474 35549 ft 459 kts 167°
2026-04-25 03:16 46.99358 3.03680 35842 ft 457 kts 167°
2026-04-25 03:16 46.96291 3.04885 36122 ft 456 kts 167°
2026-04-25 03:17 46.93235 3.06106 36394 ft 454 kts 167°
2026-04-25 03:17 46.90197 3.07340 36673 ft 452 kts 166°
2026-04-25 03:17 46.87180 3.08581 36979 ft 449 kts 166°
2026-04-25 03:17 46.84177 3.09824 37100 ft 448 kts 166°
2026-04-25 03:18 46.78248 3.12266 37111 ft 444 kts 167°
2026-04-25 03:18 46.72298 3.14690 37109 ft 444 kts 167°
2026-04-25 03:19 46.66349 3.17106 37106 ft 444 kts 167°
2026-04-25 03:19 46.60401 3.19516 37106 ft 444 kts 167°
2026-04-25 03:20 46.54454 3.21922 37107 ft 444 kts 167°
2026-04-25 03:20 46.48544 3.24308 37110 ft 444 kts 167°
2026-04-25 03:21 46.42597 3.26703 37113 ft 443 kts 167°
2026-04-25 03:21 46.36652 3.29092 37115 ft 443 kts 167°
2026-04-25 03:22 46.30713 3.31479 37107 ft 443 kts 167°
2026-04-25 03:22 46.24822 3.33840 37120 ft 442 kts 167°
2026-04-25 03:23 46.18897 3.36206 37121 ft 441 kts 167°
2026-04-25 03:23 46.12980 3.38560 37121 ft 441 kts 167°
2026-04-25 03:24 46.07071 3.40911 37118 ft 440 kts 167°
2026-04-25 03:24 46.01208 3.43225 37119 ft 439 kts 167°
2026-04-25 03:25 45.95313 3.45555 37119 ft 439 kts 167°
2026-04-25 03:25 45.89426 3.47880 37124 ft 439 kts 167°
2026-04-25 03:26 45.83845 3.51445 37121 ft 443 kts 148°
2026-04-25 03:26 45.78737 3.56290 37115 ft 443 kts 149°
2026-04-25 03:27 45.73584 3.61132 37121 ft 443 kts 149°
2026-04-25 03:27 45.68426 3.65967 37104 ft 443 kts 149°
2026-04-25 03:28 45.63280 3.70786 37121 ft 442 kts 149°
2026-04-25 03:28 45.58170 3.75563 37122 ft 442 kts 149°
2026-04-25 03:29 45.53026 3.80360 37129 ft 441 kts 149°
2026-04-25 03:29 45.47887 3.85147 37130 ft 441 kts 149°
2026-04-25 03:30 45.42747 3.89922 37138 ft 441 kts 149°
2026-04-25 03:30 45.37699 3.94771 37141 ft 442 kts 142°
2026-04-25 03:31 45.33566 4.01262 37135 ft 446 kts 127°
2026-04-25 03:31 45.29945 4.08409 37133 ft 446 kts 128°
2026-04-25 03:32 45.26301 4.15525 37132 ft 445 kts 128°
2026-04-25 03:32 45.22679 4.22581 37144 ft 445 kts 128°
2026-04-25 03:33 45.19029 4.29690 37144 ft 446 kts 128°
2026-04-25 03:33 45.15368 4.36791 37127 ft 446 kts 128°
2026-04-25 03:34 45.11697 4.43888 37135 ft 447 kts 128°
2026-04-25 03:34 45.07840 4.50691 37128 ft 446 kts 132°
2026-04-25 03:35 45.03729 4.57241 37128 ft 445 kts 134°
2026-04-25 03:35 44.99604 4.63773 37129 ft 445 kts 133°
2026-04-25 03:36 44.95525 4.70356 37134 ft 445 kts 132°
2026-04-25 03:36 44.91496 4.76920 37131 ft 445 kts 132°
2026-04-25 03:37 44.87444 4.83524 37122 ft 445 kts 132°
2026-04-25 03:37 44.83375 4.90100 37137 ft 445 kts 133°
2026-04-25 03:38 44.79292 4.96644 37132 ft 445 kts 132°
2026-04-25 03:38 44.75218 5.03191 37134 ft 444 kts 132°
2026-04-25 03:39 44.71179 5.09686 37133 ft 444 kts 132°
2026-04-25 03:39 44.67103 5.16207 37142 ft 444 kts 132°
2026-04-25 03:40 44.63019 5.22704 37147 ft 444 kts 132°
2026-04-25 03:40 44.58942 5.29209 37146 ft 444 kts 132°
2026-04-25 03:41 44.54889 5.35656 37144 ft 443 kts 132°
2026-04-25 03:41 44.50806 5.42130 37153 ft 443 kts 132°
2026-04-25 03:42 44.46726 5.48591 37148 ft 443 kts 132°
2026-04-25 03:42 44.42639 5.55031 37133 ft 442 kts 133°
2026-04-25 03:43 44.38590 5.61425 37154 ft 442 kts 130°
2026-04-25 03:43 44.35052 5.68451 37136 ft 442 kts 124°
2026-04-25 03:44 44.31601 5.75569 37154 ft 442 kts 125°
2026-04-25 03:44 44.28150 5.82673 37156 ft 442 kts 125°
2026-04-25 03:45 44.24693 5.89755 37151 ft 441 kts 125°
2026-04-25 03:45 44.21257 5.96774 37153 ft 441 kts 125°
2026-04-25 03:46 44.17797 6.03822 37151 ft 440 kts 125°
2026-04-25 03:46 44.14340 6.10864 37134 ft 440 kts 126°
2026-04-25 03:47 44.10882 6.17886 37135 ft 440 kts 126°
2026-04-25 03:47 44.07448 6.24857 37123 ft 440 kts 126°
2026-04-25 03:48 44.03982 6.31856 37118 ft 439 kts 126°
2026-04-25 03:48 44.00521 6.38844 37127 ft 439 kts 126°
2026-04-25 03:49 43.97047 6.45811 37107 ft 438 kts 126°
2026-04-25 03:49 43.93603 6.52718 37124 ft 438 kts 126°
2026-04-25 03:50 43.90130 6.59656 37112 ft 438 kts 126°
2026-04-25 03:50 43.86671 6.66598 37116 ft 437 kts 126°
2026-04-25 03:51 43.83203 6.73521 37108 ft 437 kts 126°
2026-04-25 03:51 43.79719 6.80423 37097 ft 437 kts 126°
2026-04-25 03:52 43.76264 6.87277 37094 ft 437 kts 126°
2026-04-25 03:52 43.72783 6.94166 37088 ft 437 kts 126°
2026-04-25 03:53 43.68906 7.00618 37081 ft 436 kts 131°
2026-04-25 03:53 43.64943 7.06966 37063 ft 436 kts 131°
2026-04-25 03:54 43.60985 7.13309 37061 ft 436 kts 131°
2026-04-25 03:54 43.57049 7.19598 37088 ft 436 kts 131°
2026-04-25 03:55 43.53738 7.26569 37080 ft 436 kts 114°
2026-04-25 03:55 43.51249 7.34196 37082 ft 437 kts 115°
2026-04-25 03:56 43.48737 7.41817 37020 ft 438 kts 115°
2026-04-25 03:56 43.47493 7.45578 36755 ft 438 kts 115°
2026-04-25 03:56 43.46231 7.49396 36490 ft 438 kts 115°
2026-04-25 03:57 43.44966 7.53218 36231 ft 439 kts 115°
2026-04-25 03:57 43.43696 7.57040 35968 ft 440 kts 115°
2026-04-25 03:57 43.42425 7.60863 35647 ft 438 kts 114°
2026-04-25 03:57 43.41160 7.64661 35113 ft 435 kts 114°
2026-04-25 03:58 43.39904 7.68428 34571 ft 432 kts 114°
2026-04-25 03:58 43.38657 7.72172 34030 ft 430 kts 114°
2026-04-25 03:58 43.37431 7.75847 33477 ft 427 kts 114°
2026-04-25 03:58 43.36200 7.79540 32961 ft 423 kts 114°
2026-04-25 03:59 43.34978 7.83199 32431 ft 420 kts 114°
2026-04-25 03:59 43.33761 7.86834 31912 ft 417 kts 114°
2026-04-25 03:59 43.32551 7.90439 31406 ft 414 kts 114°
2026-04-25 03:59 43.31346 7.94022 30904 ft 412 kts 114°
2026-04-25 04:00 43.30146 7.97580 30415 ft 410 kts 113°
2026-04-25 04:00 43.28952 8.01119 29869 ft 407 kts 113°
2026-04-25 04:00 43.27784 8.04579 29401 ft 403 kts 114°
2026-04-25 04:00 43.26609 8.08049 28933 ft 399 kts 114°
2026-04-25 04:01 43.25445 8.11484 28470 ft 395 kts 114°
2026-04-25 04:01 43.24290 8.14881 28016 ft 391 kts 114°
2026-04-25 04:01 43.23148 8.18246 27575 ft 388 kts 114°
2026-04-25 04:01 43.22017 8.21587 27141 ft 384 kts 114°
2026-04-25 04:02 43.20896 8.24894 26710 ft 381 kts 114°
2026-04-25 04:02 43.19782 8.28173 26271 ft 378 kts 114°
2026-04-25 04:02 43.18673 8.31422 25842 ft 375 kts 115°
2026-04-25 04:02 43.17584 8.34603 25406 ft 373 kts 115°
2026-04-25 04:03 43.16484 8.37811 24957 ft 371 kts 115°
2026-04-25 04:03 43.15392 8.40998 24491 ft 369 kts 115°
2026-04-25 04:03 43.14481 8.44268 24029 ft 367 kts 104°
2026-04-25 04:03 43.13977 8.47685 23583 ft 365 kts 100°
2026-04-25 04:04 43.13516 8.51096 23119 ft 363 kts 101°
2026-04-25 04:04 43.13046 8.54479 22690 ft 360 kts 101°
2026-04-25 04:04 43.12572 8.57833 22263 ft 358 kts 101°
2026-04-25 04:04 43.12099 8.61166 21839 ft 356 kts 101°
2026-04-25 04:05 43.11639 8.64432 21426 ft 353 kts 101°
2026-04-25 04:05 43.11177 8.67723 21009 ft 351 kts 100°
2026-04-25 04:05 43.10718 8.70992 20594 ft 348 kts 101°
2026-04-25 04:05 43.10261 8.74232 20181 ft 346 kts 101°
2026-04-25 04:06 43.09804 8.77457 19772 ft 344 kts 100°
2026-04-25 04:06 43.09348 8.80659 19364 ft 342 kts 100°
2026-04-25 04:06 43.08895 8.83847 18964 ft 340 kts 100°
2026-04-25 04:06 43.08445 8.87016 18560 ft 339 kts 100°
2026-04-25 04:07 43.08002 8.90132 18128 ft 337 kts 99°
2026-04-25 04:07 43.07554 8.93269 17721 ft 335 kts 100°
2026-04-25 04:07 43.07106 8.96381 17327 ft 332 kts 100°
2026-04-25 04:07 43.06660 8.99464 16928 ft 329 kts 101°
2026-04-25 04:08 43.06218 9.02524 16539 ft 327 kts 101°
2026-04-25 04:08 43.05599 9.05503 16153 ft 325 kts 113°
2026-04-25 04:08 43.04461 9.08156 15766 ft 324 kts 128°
2026-04-25 04:08 43.02867 9.10314 15396 ft 323 kts 142°
2026-04-25 04:09 43.00971 9.11959 15003 ft 322 kts 148°
2026-04-25 04:09 42.99080 9.13507 14623 ft 321 kts 148°
2026-04-25 04:09 42.97168 9.15072 14239 ft 320 kts 148°
2026-04-25 04:09 42.95263 9.16632 13844 ft 319 kts 148°
2026-04-25 04:10 42.93370 9.18183 13442 ft 317 kts 148°
2026-04-25 04:10 42.91488 9.19721 13064 ft 314 kts 148°
2026-04-25 04:10 42.89621 9.21244 12689 ft 311 kts 148°
2026-04-25 04:10 42.87771 9.22756 12322 ft 309 kts 148°
2026-04-25 04:11 42.84136 9.25730 11597 ft 305 kts 148°
2026-04-25 04:11 42.82315 9.27218 11238 ft 305 kts 148°
2026-04-25 04:11 42.80496 9.28705 10908 ft 303 kts 148°
2026-04-25 04:12 42.78693 9.30178 10527 ft 302 kts 149°
2026-04-25 04:12 42.76893 9.31646 10165 ft 301 kts 149°
2026-04-25 04:12 42.75103 9.33103 9788 ft 299 kts 149°
2026-04-25 04:12 42.73328 9.34547 9427 ft 296 kts 149°
2026-04-25 04:13 42.71570 9.35975 9080 ft 293 kts 149°
2026-04-25 04:13 42.69825 9.37393 8732 ft 291 kts 149°
2026-04-25 04:13 42.68115 9.38779 8397 ft 289 kts 149°
2026-04-25 04:13 42.66392 9.40174 8053 ft 287 kts 149°
2026-04-25 04:14 42.64679 9.41559 7718 ft 286 kts 149°
2026-04-25 04:14 42.62974 9.42934 7378 ft 284 kts 149°
2026-04-25 04:14 42.61283 9.44301 7044 ft 282 kts 149°
2026-04-25 04:14 42.59605 9.45659 6710 ft 280 kts 149°
2026-04-25 04:15 42.57935 9.47008 6372 ft 278 kts 149°
2026-04-25 04:15 42.56274 9.48341 6030 ft 277 kts 149°
2026-04-25 04:15 42.54612 9.49648 5701 ft 274 kts 150°
2026-04-25 04:15 42.52994 9.50908 5319 ft 271 kts 150°
2026-04-25 04:16 42.51363 9.52173 4948 ft 268 kts 150°
2026-04-25 04:16 42.49760 9.53418 4617 ft 263 kts 150°
2026-04-25 04:16 42.48192 9.54638 4300 ft 257 kts 150°
2026-04-25 04:16 42.46654 9.55833 4002 ft 252 kts 150°
2026-04-25 04:17 42.45150 9.57003 3707 ft 247 kts 150°
2026-04-25 04:17 42.43675 9.58148 3420 ft 242 kts 151°
2026-04-25 04:17 42.42222 9.59257 3129 ft 238 kts 151°
2026-04-25 04:17 42.40811 9.60326 2850 ft 233 kts 152°
2026-04-25 04:18 42.39408 9.61387 2573 ft 229 kts 152°
2026-04-25 04:18 42.38011 9.62317 2419 ft 218 kts 167°
2026-04-25 04:18 42.36574 9.62257 2401 ft 201 kts 201°
2026-04-25 04:18 42.35488 9.61215 2439 ft 190 kts 232°
2026-04-25 04:19 42.34987 9.59610 2413 ft 186 kts 263°
2026-04-25 04:19 42.35177 9.57901 2405 ft 186 kts 294°
2026-04-25 04:19 42.35996 9.56572 2406 ft 187 kts 326°
2026-04-25 04:19 42.37183 9.55919 2415 ft 188 kts 342°
2026-04-25 04:20 42.38434 9.55406 2410 ft 188 kts 342°
2026-04-25 04:20 42.39664 9.54897 2406 ft 178 kts 342°
2026-04-25 04:20 42.40821 9.54416 2408 ft 171 kts 342°
2026-04-25 04:20 42.41951 9.53945 2402 ft 169 kts 342°
2026-04-25 04:21 42.43068 9.53478 2279 ft 165 kts 342°
2026-04-25 04:21 42.44128 9.53036 2090 ft 153 kts 342°
2026-04-25 04:21 42.45114 9.52624 1926 ft 145 kts 342°
2026-04-25 04:21 42.46048 9.52233 1738 ft 141 kts 342°
2026-04-25 04:22 42.46980 9.51844 1538 ft 139 kts 342°
2026-04-25 04:22 42.47903 9.51459 1356 ft 138 kts 342°
2026-04-25 04:22 42.48825 9.51090 1164 ft 138 kts 343°
2026-04-25 04:22 42.49743 9.50718 989 ft 138 kts 342°
2026-04-25 04:23 42.50656 9.50334 823 ft 137 kts 341°
2026-04-25 04:23 42.51568 9.49940 637 ft 137 kts 341°
2026-04-25 04:23 42.52481 9.49556 427 ft 137 kts 341°
2026-04-25 04:23 42.53392 9.49169 263 ft 137 kts 340°
2026-04-25 04:24 42.54304 9.48777 64 ft 137 kts 340°
2026-04-25 04:24 42.55132 9.48426 36 ft 109 kts 343°
2026-04-25 04:24 42.55696 9.48191 28 ft 62 kts 343°
2026-04-25 04:24 42.55892 9.48109 29 ft 13 kts 343°
2026-04-25 04:25 42.55958 9.48067 25 ft 10 kts 308°
2026-04-25 04:25 42.55959 9.47992 27 ft 7 kts 253°
2026-04-25 04:25 42.55946 9.47932 25 ft 6 kts 253°
2026-04-25 04:25 42.55919 9.47872 27 ft 10 kts 215°
2026-04-25 04:26 42.55857 9.47871 27 ft 9 kts 163°
2026-04-25 04:26 42.55805 9.47891 27 ft 8 kts 163°
2026-04-25 04:26 42.55729 9.47923 29 ft 14 kts 162°
2026-04-25 04:26 42.55620 9.47970 32 ft 17 kts 162°
2026-04-25 04:27 42.55502 9.48019 35 ft 18 kts 163°
2026-04-25 04:27 42.55377 9.48071 35 ft 20 kts 163°
2026-04-25 04:27 42.55245 9.48126 34 ft 20 kts 162°
2026-04-25 04:27 42.55128 9.48175 35 ft 17 kts 163°
2026-04-25 04:28 42.55032 9.48215 35 ft 12 kts 162°
2026-04-25 04:28 42.54978 9.48236 35 ft 7 kts 171°
2026-04-25 04:28 42.54937 9.48235 35 ft 5 kts 176°
2026-04-25 04:28 42.54893 9.48252 35 ft 8 kts 163°
2026-04-25 04:29 42.54856 9.48255 35 ft 4 kts 210°
2026-04-25 04:29 42.54844 9.48222 35 ft 6 kts 250°
2026-04-25 04:29 42.54833 9.48176 34 ft 4 kts 253°
2026-04-25 04:29 42.54831 9.48167 35 ft 0 kts 252°